Radiation Dose at Monitoring Post of Fukushima Daini Nuclear Power Station
Date,Time,MP-1(microSv/h),MP-2(microSv/h),MP-3(microSv/h),MP-4(microSv/h),MP-5(microSv/h),MP-6(microSv/h),MP-7(microSv/h),Wind Direction,Wind Velocity(m/s),Rain
2018/12/02,00:00,0.264,0.192,0.311,0.298,0.281,0.157,0.096,northwest,7.0,No
2018/12/02,00:10,0.263,0.193,0.310,0.299,0.281,0.156,0.095,northwest,7.5,No
2018/12/02,00:20,0.262,0.192,0.310,0.297,0.281,0.156,0.095,northwest,6.6,No
2018/12/02,00:30,0.263,0.194,0.311,0.298,0.281,0.157,0.096,northwest,6.6,No
2018/12/02,00:40,0.264,0.193,0.310,0.299,0.282,0.157,0.095,northwest,6.9,No
2018/12/02,00:50,0.262,0.193,0.311,0.297,0.282,0.157,0.096,northwest,6.8,No
2018/12/02,01:00,0.262,0.193,0.309,0.298,0.282,0.156,0.096,northwest,7.0,No
2018/12/02,01:10,0.263,0.193,0.309,0.298,0.279,0.157,0.096,west-northwest,7.5,No
2018/12/02,01:20,0.264,0.192,0.310,0.299,0.281,0.157,0.096,west-northwest,7.3,No
2018/12/02,01:30,0.263,0.192,0.311,0.298,0.282,0.157,0.096,west-northwest,6.5,No
2018/12/02,01:40,0.263,0.193,0.310,0.296,0.280,0.157,0.096,west-northwest,8.1,No
2018/12/02,01:50,0.262,0.193,0.310,0.299,0.279,0.157,0.097,west-northwest,8.1,No
2018/12/02,02:00,0.263,0.193,0.310,0.297,0.280,0.157,0.095,west-northwest,7.8,No
2018/12/02,02:10,0.262,0.193,0.310,0.299,0.280,0.157,0.096,west-northwest,7.4,No
2018/12/02,02:20,0.263,0.193,0.311,0.297,0.281,0.156,0.096,west-northwest,8.5,No
2018/12/02,02:30,0.264,0.194,0.310,0.297,0.282,0.157,0.096,northwest,7.9,No
2018/12/02,02:40,0.264,0.193,0.310,0.298,0.280,0.157,0.095,northwest,7.6,No
2018/12/02,02:50,0.263,0.193,0.310,0.298,0.281,0.157,0.095,west-northwest,8.1,No
2018/12/02,03:00,0.263,0.192,0.310,0.297,0.281,0.156,0.096,west-northwest,6.0,No
2018/12/02,03:10,0.263,0.192,0.310,0.297,0.281,0.156,0.096,west-northwest,6.5,No
2018/12/02,03:20,0.264,0.193,0.312,0.299,0.280,0.156,0.096,west-northwest,6.8,No
2018/12/02,03:30,0.264,0.193,0.310,0.299,0.281,0.158,0.096,northwest,8.1,No
2018/12/02,03:40,0.263,0.192,0.310,0.297,0.280,0.157,0.096,northwest,6.3,No
2018/12/02,03:50,0.264,0.194,0.311,0.298,0.281,0.157,0.096,north-northwest,5.3,No
2018/12/02,04:00,0.263,0.192,0.311,0.299,0.281,0.157,0.096,northwest,5.3,No
2018/12/02,04:10,0.264,0.193,0.310,0.299,0.280,0.156,0.096,northwest,6.2,No
2018/12/02,04:20,0.264,0.194,0.310,0.298,0.281,0.157,0.096,northwest,7.4,No
2018/12/02,04:30,0.264,0.193,0.310,0.298,0.281,0.157,0.096,west-northwest,9.2,No
2018/12/02,04:40,0.264,0.193,0.312,0.299,0.280,0.157,0.096,west-northwest,4.3,No
2018/12/02,04:50,0.265,0.193,0.309,0.298,0.281,0.157,0.095,north-northeast,1.0,No
2018/12/02,05:00,0.263,0.194,0.311,0.298,0.281,0.158,0.096,north-northeast,2.0,No
2018/12/02,05:10,0.263,0.193,0.311,0.299,0.281,0.158,0.096,north,2.5,No
2018/12/02,05:20,0.263,0.192,0.311,0.299,0.280,0.158,0.096,north-northwest,2.5,No
2018/12/02,05:30,0.264,0.193,0.311,0.299,0.280,0.156,0.096,northwest,1.9,No
2018/12/02,05:40,0.262,0.193,0.311,0.297,0.279,0.156,0.097,northwest,1.2,No
2018/12/02,05:50,0.264,0.193,0.310,0.298,0.281,0.157,0.095,west-northwest,1.5,No
2018/12/02,06:00,0.264,0.192,0.310,0.298,0.281,0.156,0.096,west-northwest,0.7,No
2018/12/02,06:10,0.263,0.193,0.311,0.299,0.281,0.157,0.096,north-northeast,1.1,No
2018/12/02,06:20,0.265,0.193,0.311,0.298,0.280,0.157,0.095,north,1.4,No
2018/12/02,06:30,0.264,0.193,0.310,0.298,0.280,0.157,0.096,northwest,2.1,No
2018/12/02,06:40,0.263,0.193,0.309,0.298,0.281,0.157,0.096,northwest,2.2,No
2018/12/02,06:50,0.263,0.193,0.311,0.299,0.281,0.156,0.096,north-northwest,3.0,No
2018/12/02,07:00,0.264,0.193,0.310,0.298,0.280,0.156,0.095,north,2.3,No
2018/12/02,07:10,0.262,0.192,0.310,0.298,0.281,0.157,0.096,north-northwest,1.1,No
2018/12/02,07:20,0.263,0.193,0.311,0.298,0.281,0.157,0.096,west,0.8,No
2018/12/02,07:30,0.264,0.194,0.310,0.297,0.281,0.158,0.096,southwest,0.8,No
2018/12/02,07:40,0.264,0.193,0.310,0.298,0.281,0.158,0.096,south,0.9,No
2018/12/02,07:50,0.262,0.192,0.310,0.298,0.281,0.157,0.096,south-southeast,1.0,No
2018/12/02,08:00,0.263,0.193,0.310,0.297,0.280,0.157,0.096,south,1.7,No
2018/12/02,08:10,0.263,0.193,0.311,0.298,0.281,0.157,0.095,southeast,1.4,No
2018/12/02,08:20,0.262,0.193,0.310,0.298,0.281,0.156,0.096,south,0.6,No
2018/12/02,08:30,0.261,0.194,0.310,0.298,0.280,0.157,0.095,west-southwest,1.2,No
2018/12/02,08:40,0.263,0.193,0.309,0.297,0.282,0.157,0.096,west-southwest,1.4,No
2018/12/02,08:50,0.264,0.193,0.310,0.298,0.282,0.156,0.096,-,CALM,No
2018/12/02,09:00,0.263,0.192,0.310,0.297,0.281,0.157,0.095,-,CALM,No
2018/12/02,09:10,0.264,0.193,0.309,0.297,0.281,0.157,0.096,-,CALM,No
2018/12/02,09:20,0.262,0.192,0.310,0.297,0.282,0.158,0.096,-,CALM,No
2018/12/02,09:30,0.263,0.193,0.310,0.296,0.280,0.157,0.096,-,CALM,No
2018/12/02,09:40,0.265,0.193,0.310,0.297,0.281,0.157,0.096,east-northeast,1.2,No
2018/12/02,09:50,0.262,0.192,0.309,0.296,0.280,0.158,0.095,east-northeast,1.5,No
2018/12/02,10:00,0.262,0.191,0.310,0.298,0.280,0.157,0.096,east,1.8,No
2018/12/02,10:10,0.262,0.190,0.309,0.297,0.282,0.158,0.096,southeast,1.6,No
2018/12/02,10:20,0.260,0.192,0.311,0.298,0.281,0.157,0.096,southeast,1.9,No
2018/12/02,10:30,0.262,0.191,0.310,0.300,0.282,0.158,0.095,southeast,1.9,No
2018/12/02,10:40,0.261,0.193,0.311,0.297,0.280,0.157,0.096,east-southeast,1.8,No
2018/12/02,10:50,0.262,0.191,0.310,0.300,0.282,0.158,0.095,southeast,1.2,No
2018/12/02,11:00,0.260,0.193,0.310,0.296,0.281,0.156,0.095,east-southeast,2.0,No
2018/12/02,11:10,0.262,0.192,0.311,0.297,0.282,0.158,0.096,east,2.0,No
2018/12/02,11:20,0.260,0.191,0.309,0.298,0.281,0.157,0.095,southeast,1.2,No
2018/12/02,11:30,0.262,0.193,0.308,0.297,0.280,0.156,0.095,east-southeast,1.6,No
2018/12/02,11:40,0.261,0.192,0.310,0.299,0.282,0.157,0.096,east-southeast,1.5,No
2018/12/02,11:50,0.262,0.193,0.308,0.296,0.280,0.158,0.096,east-southeast,2.0,No
2018/12/02,12:00,0.262,0.191,0.308,0.298,0.282,0.157,0.095,southeast,1.7,No
2018/12/02,12:10,0.262,0.193,0.308,0.297,0.281,0.158,0.096,southeast,2.0,No
2018/12/02,12:20,0.262,0.194,0.308,0.297,0.282,0.157,0.096,southeast,2.2,No
2018/12/02,12:30,0.264,0.193,0.310,0.299,0.282,0.156,0.095,southeast,1.9,No
2018/12/02,12:40,0.262,0.193,0.309,0.298,0.281,0.157,0.095,southeast,2.1,No
2018/12/02,12:50,0.263,0.193,0.310,0.300,0.283,0.157,0.096,south-southeast,2.5,No
2018/12/02,13:00,0.262,0.194,0.309,0.297,0.281,0.156,0.096,south-southeast,3.0,No
2018/12/02,13:10,0.264,0.192,0.308,0.299,0.283,0.156,0.095,south-southeast,2.9,No
2018/12/02,13:20,0.261,0.192,0.311,0.298,0.282,0.157,0.096,southeast,3.3,No
2018/12/02,13:30,0.262,0.192,0.308,0.298,0.282,0.157,0.096,south-southeast,2.8,No
2018/12/02,13:40,0.261,0.192,0.311,0.299,0.281,0.156,0.095,southeast,3.5,No
2018/12/02,13:50,0.263,0.192,0.309,0.298,0.282,0.157,0.095,southeast,2.8,No
2018/12/02,14:00,0.263,0.193,0.309,0.300,0.281,0.156,0.095,south-southeast,3.5,No
2018/12/02,14:10,0.263,0.193,0.311,0.298,0.282,0.157,0.096,south-southeast,3.6,No
2018/12/02,14:20,0.265,0.193,0.310,0.298,0.280,0.156,0.096,south-southeast,4.4,No
2018/12/02,14:30,0.262,0.192,0.310,0.299,0.280,0.157,0.096,south-southeast,5.2,No
2018/12/02,14:40,0.264,0.194,0.309,0.299,0.284,0.158,0.095,south-southeast,4.5,No
2018/12/02,14:50,0.264,0.193,0.309,0.300,0.280,0.157,0.096,south-southeast,4.7,No
2018/12/02,15:00,0.263,0.192,0.312,0.299,0.282,0.157,0.095,south-southeast,5.2,No
2018/12/02,15:10,0.263,0.194,0.309,0.299,0.282,0.157,0.095,south-southeast,4.6,No
2018/12/02,15:20,0.262,0.192,0.309,0.300,0.280,0.156,0.095,south,4.5,No
2018/12/02,15:30,0.263,0.193,0.310,0.299,0.282,0.156,0.096,south,3.8,No
2018/12/02,15:40,0.264,0.193,0.310,0.299,0.281,0.157,0.096,south,3.9,No
2018/12/02,15:50,0.263,0.192,0.309,0.299,0.282,0.157,0.096,south,3.9,No
2018/12/02,16:00,0.262,0.193,0.310,0.299,0.283,0.157,0.095,south,5.0,No
2018/12/02,16:10,0.264,0.194,0.309,0.299,0.282,0.157,0.095,south,5.3,No
2018/12/02,16:20,0.262,0.193,0.309,0.300,0.280,0.159,0.095,south,5.3,No
2018/12/02,16:30,0.263,0.194,0.312,0.299,0.281,0.157,0.096,south,5.9,No
2018/12/02,16:40,0.263,0.193,0.310,0.299,0.281,0.157,0.096,south,5.9,No
2018/12/02,16:50,0.263,0.193,0.309,0.299,0.282,0.158,0.096,south-southwest,5.6,No
2018/12/02,17:00,0.262,0.192,0.310,0.300,0.282,0.157,0.095,south-southwest,5.8,No
2018/12/02,17:10,0.262,0.193,0.310,0.299,0.282,0.158,0.095,south-southwest,6.7,No
2018/12/02,17:20,0.263,0.194,0.310,0.300,0.281,0.157,0.097,south-southwest,6.8,No
2018/12/02,17:30,0.263,0.192,0.310,0.300,0.283,0.158,0.096,south-southwest,5.9,No
2018/12/02,17:40,0.263,0.194,0.310,0.299,0.281,0.156,0.095,south-southwest,7.0,No
2018/12/02,17:50,0.263,0.194,0.310,0.298,0.281,0.158,0.096,south-southwest,8.5,No
2018/12/02,18:00,0.261,0.192,0.309,0.300,0.282,0.157,0.096,south,9.5,No
2018/12/02,18:10,0.264,0.191,0.310,0.298,0.281,0.157,0.096,south-southwest,9.5,No
2018/12/02,18:20,0.264,0.194,0.311,0.298,0.281,0.157,0.095,south-southwest,9.3,No
2018/12/02,18:30,0.263,0.194,0.310,0.299,0.280,0.157,0.095,south-southwest,8.1,No
2018/12/02,18:40,0.263,0.192,0.312,0.299,0.280,0.158,0.096,south-southwest,8.1,No
2018/12/02,18:50,0.264,0.193,0.310,0.299,0.283,0.157,0.096,south-southwest,7.4,No
2018/12/02,19:00,0.263,0.194,0.309,0.299,0.281,0.158,0.096,south-southwest,7.1,No
2018/12/02,19:10,0.264,0.192,0.310,0.299,0.282,0.157,0.096,south-southwest,6.9,No
2018/12/02,19:20,0.264,0.193,0.311,0.298,0.282,0.157,0.096,south-southwest,6.5,No
2018/12/02,19:30,0.262,0.194,0.309,0.298,0.283,0.158,0.096,south-southwest,6.3,No
2018/12/02,19:40,0.264,0.192,0.308,0.300,0.282,0.158,0.096,south-southwest,7.3,No
2018/12/02,19:50,0.263,0.194,0.311,0.299,0.281,0.157,0.096,south-southwest,6.1,No
2018/12/02,20:00,0.262,0.193,0.311,0.300,0.281,0.157,0.095,south-southwest,5.0,No
2018/12/02,20:10,0.261,0.194,0.310,0.299,0.283,0.158,0.096,south-southwest,5.8,No
2018/12/02,20:20,0.263,0.193,0.311,0.298,0.281,0.157,0.096,south-southwest,5.2,No
2018/12/02,20:30,0.263,0.192,0.311,0.300,0.281,0.157,0.095,southwest,7.0,No
2018/12/02,20:40,0.262,0.193,0.309,0.299,0.282,0.157,0.096,south-southwest,6.9,No
2018/12/02,20:50,0.262,0.193,0.310,0.300,0.281,0.157,0.096,south-southwest,7.6,No
2018/12/02,21:00,0.263,0.193,0.311,0.299,0.281,0.157,0.096,south-southwest,7.4,No
2018/12/02,21:10,0.263,0.192,0.310,0.299,0.283,0.156,0.096,south-southwest,7.3,No
2018/12/02,21:20,0.263,0.194,0.310,0.299,0.281,0.158,0.095,south-southwest,7.0,No
2018/12/02,21:30,0.264,0.193,0.311,0.299,0.281,0.156,0.096,south-southwest,6.2,No
2018/12/02,21:40,0.263,0.193,0.310,0.298,0.282,0.158,0.096,south-southwest,7.8,No
2018/12/02,21:50,0.262,0.194,0.311,0.299,0.281,0.158,0.096,south-southwest,8.7,No
2018/12/02,22:00,0.262,0.193,0.311,0.298,0.281,0.158,0.096,south-southwest,7.6,No
2018/12/02,22:10,0.264,0.192,0.310,0.299,0.282,0.156,0.095,south-southwest,6.6,No
2018/12/02,22:20,0.263,0.193,0.311,0.299,0.281,0.158,0.096,south-southwest,5.5,No
2018/12/02,22:30,0.263,0.193,0.310,0.300,0.282,0.157,0.096,south-southwest,5.6,No
2018/12/02,22:40,0.263,0.193,0.310,0.299,0.283,0.156,0.096,south-southwest,6.7,No
2018/12/02,22:50,0.262,0.191,0.309,0.300,0.280,0.157,0.095,south-southwest,6.1,No
2018/12/02,23:00,0.263,0.193,0.311,0.299,0.282,0.156,0.096,south-southwest,4.5,No
2018/12/02,23:10,0.264,0.193,0.309,0.299,0.282,0.157,0.095,southwest,4.1,No
2018/12/02,23:20,0.263,0.192,0.309,0.297,0.281,0.157,0.095,south-southwest,3.3,No
2018/12/02,23:30,0.261,0.193,0.311,0.298,0.282,0.157,0.096,southwest,3.9,No
2018/12/02,23:40,0.263,0.192,0.309,0.298,0.280,0.157,0.096,south-southwest,3.2,No
2018/12/02,23:50,0.263,0.192,0.310,0.299,0.283,0.157,0.095,south-southwest,3.7,No
